Dewpoint
-6 -5 -3 -2 -2 -1 -0 0 1 3 3 4 4 4 4 4 4 3 3 3 3 3 3 3 3 3 3 5 4 3 4 4 3 4 4 5 3 4 3 3 3 4 6
-10 -6 -4 -3 -2 -2 -1 -0 1 1 1 2 3 3 4 3 3 3 3 3 3 3 3 2 2 2 3 3 3 3 3 2 2 1 4 4 4 4 3 3 3 4 3
-12 -8 -6 -4 -3 -2 -1 -1 0 0 1 1 2 2 2 3 3 3 3 3 3 2 2 2 2 1 1 1 2 2 2 2 2 2 2 3 4 3 4 3 3 2 2
-12 -10 -9 -6 -4 -3 -3 -2 -1 -0 0 0 1 1 2 2 2 2 2 2 2 2 2 1 1 1 1 1 1 1 1 1 2 1 2 2 1 2 3 3 3 1 1
-15 -14 -13 -10 -7 -6 -5 -4 -3 -1 -1 -1 -0 -0 1 1 1 1 -0 -1 -1 -1 -2 -2 -2 -1 -1 -1 -0 -0 0 0 1 1 1 1 1 2 2 2 2 1 1
-16 -16 -15 -15 -13 -10 -8 -7 -7 -5 -4 -3 -3 -2 -2 -3 -4 -5 -6 -6 -7 -7 -7 -7 -6 -6 -6 -6 -6 -5 -4 -3 -2 -1 -0 0 0 0 -0 -1 -1 -0 0
-17 -18 -19 -19 -19 -18 -15 -13 -11 -9 -10 -10 -10 -10 -11 -12 -13 -13 -14 -16 -18 -18 -19 -20 -22 -22 -23 -22 -22 -20 -17 -13 -10 -8 -7 -5 -3 -2 -2 -2 -2 -3 -3
-18 -19 -21 -22 -23 -23 -23 -22 -22 -20 -20 -20 -20 -22 -23 -24 -24 -25 -26 -26 -27 -27 -28 -28 -28 -28 -28 -28 -28 -28 -28 -28 -27 -26 -24 -20 -15 -13 -11 -10 -10 -8 -6
-19 -20 -23 -24 -25 -25 -26 -26 -26 -26 -26 -26 -27 -27 -27 -28 -28 -29 -30 -30 -31 -31 -32 -32 -33 -33 -33 -33 -33 -34 -34 -33 -33 -33 -33 -32 -31 -31 -30 -30 -28 -20 -9
-20 -21 -24 -25 -26 -27 -27 -27 -27 -27 -28 -28 -29 -29 -30 -31 -32 -32 -33 -33 -33 -32 -32 -32 -32 -32 -32 -32 -32 -32 -32 -32 -32 -33 -33 -33 -34 -33 -33 -33 -32 -30 -22
-20 -21 -25 -26 -26 -27 -27 -28 -28 -29 -30 -31 -32 -32 -33 -32 -32 -32 -31 -31 -31 -31 -31 -31 -32 -33 -34 -34 -35 -35 -35 -34 -34 -33 -32 -32 -32 -32 -31 -31 -30 -29 -23
-20 -23 -26 -26 -27 -27 -28 -29 -30 -31 -32 -33 -32 -32 -32 -31 -30 -30 -30 -31 -33 -35 -38 -40 -40 -40 -40 -40 -40 -40 -40 -40 -40 -40 -39 -39 -39 -39 -39 -38 -37 -33 -23
-19 -22 -25 -27 -28 -28 -29 -31 -32 -32 -32 -32 -31 -30 -30 -30 -31 -34 -38 -40 -40 -40 -40 -40 -40 -40 -40 -39 -39 -38 -38 -38 -38 -38 -37 -37 -38 -39 -39 -36 -31 -21 -15
-21 -25 -26 -27 -29 -30 -31 -32 -32 -31 -31 -30 -30 -30 -33 -37 -40 -40 -40 -40 -40 -39 -39 -38 -37 -36 -36 -35 -35 -35 -35 -35 -35 -35 -35 -36 -37 -37 -37 -33 -19 -15 -17
-22 -26 -27 -29 -31 -32 -32 -31 -31 -30 -29 -30 -34 -39 -40 -40 -39 -39 -39 -39 -38 -36 -36 -35 -35 -35 -35 -34 -34 -34 -33 -33 -34 -34 -34 -35 -36 -37 -37 -33 -22 -17 -14
-24 -27 -29 -31 -31 -31 -31 -30 -29 -29 -33 -38 -39 -39 -39 -38 -38 -38 -36 -35 -34 -34 -33 -32 -32 -32 -32 -32 -32 -32 -29 -30 -32 -33 -33 -34 -35 -35 -35 -35 -31 -15 -14
-25 -29 -30 -27 -27 -27 -28 -30 -30 -35 -38 -39 -38 -38 -38 -37 -36 -34 -33 -32 -31 -30 -30 -30 -30 -30 -30 -30 -31 -31 -29 -30 -30 -32 -33 -34 -34 -33 -33 -33 -28 -17 -15
-22 -15 -18 -25 -23 -24 -27 -30 -36 -38 -38 -38 -37 -37 -35 -33 -32 -31 -30 -30 -29 -29 -29 -29 -28 -28 -28 -28 -28 -29 -28 -24 -30 -32 -33 -33 -33 -32 -30 -30 -21 -16 -16
-12 -17 -22 -20 -21 -24 -30 -37 -37 -37 -37 -36 -35 -33 -32 -31 -31 -30 -30 -29 -29 -29 -28 -28 -28 -27 -28 -27 -27 -27 -28 -28 -29 -30 -30 -30 -30 -31 -19 -16 -15 -15 -16
-14 -18 -19 -21 -25 -32 -37 -37 -36 -35 -34 -33 -32 -32 -31 -31 -31 -30 -30 -30 -30 -30 -30 -30 -29 -29 -29 -28 -27 -26 -25 -23 -20 -19 -19 -18 -17 -16 -16 -15 -16 -17 -15
-20 -20 -23 -30 -36 -36 -36 -34 -33 -32 -32 -32 -32 -32 -31 -31 -31 -31 -31 -31 -31 -30 -30 -30 -30 -30 -30 -30 -29 -27 -23 -18 -18 -18 -18 -19 -17 -16 -15 -16 -16 -16 -15
-25 -31 -35 -35 -34 -34 -33 -32 -32 -31 -31 -29 -28 -26 -25 -24 -23 -23 -23 -22 -22 -22 -22 -23 -23 -24 -25 -26 -28 -28 -23 -18 -18 -17 -17 -17 -16 -16 -16 -16 -16 -14 -15
-34 -34 -33 -33 -32 -32 -30 -26 -22 -21 -20 -20 -20 -20 -20 -20 -19 -19 -19 -19 -19 -20 -20 -20 -20 -20 -21 -21 -23 -26 -24 -18 -17 -17 -17 -17 -16 -16 -16 -15 -15 -15 -16
-32 -32 -30 -26 -22 -21 -21 -20 -20 -20 -20 -21 -21 -22 -22 -22 -21 -21 -20 -20 -20 -20 -20 -20 -20 -20 -20 -20 -21 -21 -21 -21 -20 -21 -22 -23 -18 -16 -16 -16 -16 -16 -16
-25 -22 -21 -21 -22 -22 -23 -24 -27 -28 -29 -29 -29 -29 -28 -27 -26 -25 -23 -22 -21 -20 -20 -20 -20 -19 -19 -19 -19 -18 -18 -18 -19 -18 -20 -24 -21 -19 -17 -17 -17 -17 -18
-22 -22 -24 -27 -30 -31 -31 -30 -30 -30 -30 -29 -27 -26 -24 -24 -22 -21 -22 -23 -21 -21 -20 -20 -19 -19 -19 -18 -18 -17 -17 -17 -16 -16 -16 -16 -16 -17 -17 -17 -17 -18 -19
Wind_Speed
4 3 3 2 1 3 5 6 10 13 16 16 17 15 14 13 11 8 7 4 2 2 4 5 5 6 3 2 5 4 6 8 10 6 7 3 4 1 5 5 2 6 9
5 4 4 5 5 5 5 6 9 14 17 16 16 17 15 13 11 11 9 7 5 3 2 0 3 5 6 6 4 2 2 4 6 7 4 3 2 5 3 4 3 3 3
9 8 8 8 8 7 7 8 10 12 15 16 15 15 14 13 12 10 8 6 5 4 4 2 1 0 2 4 6 5 6 5 7 6 4 3 2 10 2 5 4 4 8
11 10 10 10 11 10 9 9 10 11 13 15 15 13 13 12 11 10 7 6 4 3 2 1 0 0 1 1 2 4 4 4 4 4 4 4 6 3 6 4 9 13 13
14 13 12 12 13 13 12 11 11 11 12 12 13 13 13 12 11 9 6 5 4 3 3 3 3 3 2 2 2 2 2 2 3 4 5 6 5 9 8 12 10 19 16
16 14 14 14 13 14 13 13 13 13 13 13 13 12 11 10 9 8 7 6 5 4 4 3 3 4 4 4 3 4 4 3 3 3 4 5 5 9 9 13 18 20 16
19 18 16 15 15 14 14 14 14 14 14 14 13 13 12 11 9 9 8 7 6 6 5 5 5 5 5 5 6 6 6 5 5 5 5 6 6 9 11 13 17 20 24
20 19 18 17 16 15 14 14 14 15 14 13 13 13 12 11 10 9 8 7 7 6 6 6 6 6 6 7 7 7 7 7 7 7 7 8 9 9 11 12 15 17 12
22 21 20 19 17 16 15 15 14 13 13 12 12 11 10 9 8 7 7 6 6 6 6 6 6 7 7 7 8 8 8 9 9 10 10 11 12 12 13 13 13 12 11
22 21 21 20 19 17 16 14 13 12 11 10 9 8 7 7 6 5 5 4 5 5 6 7 7 8 9 9 10 10 10 10 11 12 13 14 14 15 16 16 16 15 14
23 22 22 21 19 17 15 14 12 11 9 8 7 6 5 4 3 3 3 5 6 7 8 9 10 11 12 12 12 13 13 13 14 15 16 17 17 18 19 19 19 18 17
23 23 23 21 19 17 15 13 11 9 8 6 4 3 1 1 3 4 6 8 9 10 10 11 11 12 13 13 13 14 14 15 15 16 17 18 19 19 19 19 20 20 19
23 23 23 20 18 16 14 12 10 8 6 4 2 0 2 5 6 8 9 9 9 10 10 11 11 12 12 13 14 15 15 15 16 17 18 19 19 19 19 19 18 17 17
26 25 23 20 17 15 12 10 8 5 3 2 2 4 6 7 7 7 8 8 9 10 11 12 13 13 14 15 16 17 18 18 18 19 19 20 20 20 19 18 16 15 18
26 25 22 19 16 13 11 8 5 3 2 4 6 6 6 6 7 7 8 9 11 12 13 14 15 16 16 17 18 19 20 21 21 21 21 21 20 20 19 18 17 17 15
26 24 21 18 15 12 8 5 3 3 4 6 6 6 6 7 8 9 11 12 14 15 16 17 17 17 17 18 19 20 21 23 24 23 24 24 22 21 20 19 17 14 15
27 24 20 17 12 8 5 3 4 5 4 5 6 6 7 9 11 12 13 15 16 17 18 18 19 19 20 20 21 20 22 24 25 25 25 25 23 22 22 20 15 14 15
28 24 19 14 9 6 4 4 5 5 4 6 7 9 10 12 13 15 16 18 19 20 21 22 22 22 22 22 23 22 23 24 26 26 25 25 24 22 21 20 17 18 19
24 19 15 11 9 6 4 4 5 5 6 9 10 12 14 16 17 19 20 22 23 24 25 26 27 27 26 25 24 25 26 26 27 26 25 24 23 22 19 18 18 21 21
19 17 13 10 7 5 4 4 6 6 9 11 14 16 18 20 21 22 24 25 27 28 29 30 30 30 31 28 27 26 26 25 24 22 22 21 21 20 19 21 23 22 20
17 15 10 7 5 4 4 5 7 9 12 14 17 19 21 22 24 26 27 28 29 31 32 33 33 33 32 31 29 27 26 24 22 22 21 20 20 20 21 22 22 24 21
13 10 8 5 2 4 6 8 11 13 16 17 19 21 23 25 26 28 28 29 29 30 31 31 32 32 32 31 30 27 26 24 26 27 25 25 24 24 24 22 21 23 15
11 8 5 2 2 6 9 11 14 16 19 20 22 23 25 26 27 28 28 28 27 28 28 28 29 30 29 29 28 26 24 24 26 27 29 28 28 27 26 27 24 20 22
8 5 2 2 4 7 11 15 17 20 22 23 24 24 26 26 26 26 27 28 27 27 26 27 28 28 28 28 27 27 27 27 26 29 30 32 30 26 25 26 24 23 20
5 2 2 5 8 11 14 16 18 20 21 22 23 23 23 24 24 23 23 24 24 23 27 31 33 34 35 32 28 26 28 30 26 24 24 22 24 29 30 28 26 23 23
2 3 6 8 10 12 14 15 17 19 19 19 19 19 19 18 18 18 21 19 19 20 22 24 26 29 30 30 29 30 31 31 32 33 33 34 31 31 31 26 23 18 19
Wind_Direction
165 159 156 129 72 266 242 227 222 200 191 183 175 172 171 162 169 176 182 206 231 299 337 341 20 48 58 208 237 244 279 284 294 328 339 349 37 309 351 17 35 224 250
164 173 170 174 176 169 178 184 184 182 181 181 182 175 170 167 167 168 178 179 171 171 154 9 342 349 342 349 360 310 268 319 334 354 2 347 12 19 29 28 74 76 14
173 178 173 169 165 159 158 163 166 173 176 176 178 169 166 164 162 162 158 155 154 153 144 140 137 81 320 316 306 313 325 326 335 354 22 337 312 328 226 337 324 318 339
178 174 168 164 160 158 148 143 157 158 165 169 169 169 169 167 160 158 153 149 141 135 134 118 96 335 306 308 269 280 269 273 283 278 255 265 284 284 301 278 315 290 311
173 169 169 163 156 153 148 143 143 147 151 155 163 162 162 153 147 143 140 137 133 120 96 83 60 46 32 23 353 327 311 295 288 286 262 250 250 256 276 289 286 293 298
170 170 169 163 156 152 151 145 142 143 139 145 147 148 150 145 142 140 136 125 115 104 83 68 55 45 33 25 15 13 8 5 345 332 319 306 299 299 308 301 303 309 312
169 169 166 163 159 154 150 149 149 145 142 141 139 139 137 132 133 131 123 110 99 90 82 69 56 43 35 26 18 10 4 357 348 340 329 319 307 302 302 302 303 308 313
169 168 167 164 162 157 152 147 144 143 141 138 138 133 131 127 123 116 107 101 88 73 58 46 36 26 16 8 2 357 352 349 344 339 333 324 317 310 306 309 314 317 308
166 168 169 168 164 162 158 153 148 144 140 137 132 129 125 118 111 102 91 80 66 53 39 25 14 5 358 352 347 342 339 336 334 331 326 322 319 317 316 316 316 314 313
161 164 168 168 165 163 159 155 151 146 143 137 131 125 117 108 97 82 64 47 30 17 5 355 347 341 336 332 328 324 322 321 319 317 315 314 314 313 313 313 313 309 298
162 162 166 168 167 164 161 158 154 151 145 139 135 126 114 97 74 41 12 358 349 342 336 332 329 326 324 321 319 316 314 313 312 310 307 306 306 307 307 307 307 305 300
163 166 169 168 167 166 162 159 156 153 150 146 140 128 98 21 350 340 335 331 328 325 324 324 324 324 323 321 319 317 317 316 315 313 310 309 308 307 305 304 302 302 298
160 165 168 168 167 165 163 161 160 159 159 161 164 274 323 324 324 323 324 325 326 326 327 327 327 326 325 324 322 320 319 318 316 314 313 313 312 311 311 311 309 305 303
166 168 168 168 167 165 164 163 164 167 178 216 283 303 309 312 315 318 322 325 326 325 325 324 323 322 321 319 316 314 312 311 310 310 310 309 309 309 309 310 309 304 304
165 168 167 165 164 162 162 165 173 192 242 285 299 306 311 314 316 318 319 319 319 317 314 313 313 313 312 311 308 306 304 304 303 304 304 303 302 301 301 299 297 302 305
163 165 164 161 158 159 162 174 200 255 286 294 297 302 308 310 311 312 310 308 307 306 308 310 310 309 308 306 305 304 301 301 300 302 302 300 298 297 295 293 292 291 296
162 163 158 156 159 163 172 212 264 279 285 287 290 297 300 297 296 298 300 301 304 305 305 306 306 306 306 304 301 298 295 293 294 297 296 294 294 293 292 291 289 286 286
164 167 170 173 184 196 217 260 271 277 285 282 285 290 292 295 298 301 302 300 301 302 302 301 301 300 302 302 302 299 294 289 293 294 291 288 288 287 285 285 287 294 297
168 173 185 192 203 226 259 270 274 290 294 288 295 296 298 301 301 300 299 299 298 298 298 299 299 298 298 298 298 296 292 291 292 291 287 285 283 282 281 287 288 285 287
171 181 183 189 219 249 254 261 285 306 293 295 298 299 299 297 296 296 296 295 295 294 294 294 293 293 294 294 294 293 292 288 286 284 281 279 275 278 278 274 277 280 282
165 168 176 198 219 241 273 296 308 302 297 297 298 298 297 296 295 295 296 295 295 295 296 296 295 295 294 292 290 288 286 280 280 278 277 275 275 276 269 272 272 276 275
154 162 166 176 207 288 305 308 309 303 302 300 299 298 298 298 298 297 297 296 296 296 296 295 295 295 294 293 291 288 281 275 275 274 274 275 273 272 271 268 266 269 259
142 140 132 102 330 314 311 309 303 303 302 302 303 302 301 301 300 299 298 296 295 293 292 292 292 293 293 294 295 292 285 276 269 267 268 272 273 271 269 266 262 270 274
117 103 71 4 309 306 303 304 306 304 305 306 306 305 304 303 301 300 300 300 298 294 292 291 293 296 299 301 302 301 292 285 278 277 275 269 263 261 265 266 263 262 260
112 84 333 320 312 308 309 308 305 307 308 309 310 309 308 308 307 306 304 301 299 297 301 302 302 303 300 298 297 289 288 294 294 291 286 269 254 258 264 264 259 262 267
74 352 333 325 322 323 321 315 316 316 316 317 319 319 316 316 316 314 315 315 305 298 293 289 286 285 286 288 287 285 282 280 280 279 271 270 268 269 268 258 249 248 264
Height
1563 1562 1562 1561 1560 1561 1562 1562 1563 1564 1566 1567 1569 1571 1572 1573 1574 1576 1577 1577 1577 1577 1577 1577 1576 1576 1575 1575 1575 1575 1575 1574 1574 1575 1574 1575 1573 1574 1574 1574 1573 1572 1574
1562 1562 1562 1561 1561 1561 1561 1561 1562 1563 1564 1565 1568 1569 1570 1571 1572 1573 1574 1575 1575 1575 1574 1574 1574 1574 1574 1575 1574 1574 1574 1573 1573 1573 1574 1575 1575 1574 1573 1573 1572 1573 1573
1559 1561 1561 1561 1560 1560 1560 1561 1562 1562 1562 1564 1566 1567 1569 1570 1571 1572 1573 1573 1572 1572 1572 1572 1572 1572 1573 1573 1573 1573 1573 1573 1573 1573 1575 1575 1575 1574 1573 1573 1573 1573 1573
1557 1558 1559 1559 1558 1560 1560 1560 1562 1562 1562 1563 1565 1567 1568 1569 1570 1571 1572 1572 1572 1571 1571 1571 1571 1571 1572 1572 1572 1572 1572 1572 1572 1572 1573 1573 1574 1574 1573 1573 1573 1570 1571
1554 1555 1557 1558 1558 1559 1560 1560 1562 1562 1562 1564 1565 1567 1568 1569 1570 1570 1571 1571 1571 1571 1571 1571 1571 1571 1571 1570 1571 1571 1570 1570 1570 1570 1570 1571 1571 1571 1572 1570 1570 1568 1568
1550 1552 1555 1556 1557 1559 1560 1561 1562 1562 1563 1565 1566 1567 1568 1569 1570 1570 1571 1571 1571 1571 1570 1570 1570 1570 1570 1570 1570 1570 1570 1569 1570 1569 1569 1569 1569 1568 1569 1567 1565 1563 1564
1547 1550 1552 1555 1557 1558 1560 1561 1562 1563 1564 1565 1567 1568 1569 1569 1570 1571 1571 1571 1571 1571 1571 1570 1570 1570 1570 1570 1569 1569 1569 1569 1569 1568 1568 1567 1567 1567 1566 1566 1563 1560 1558
1543 1547 1550 1553 1556 1558 1559 1561 1562 1564 1565 1566 1567 1568 1569 1570 1570 1571 1571 1571 1571 1571 1570 1570 1570 1570 1570 1569 1569 1569 1568 1568 1567 1567 1566 1565 1565 1565 1564 1563 1561 1558 1557
1541 1544 1548 1551 1555 1557 1559 1561 1563 1564 1565 1567 1568 1569 1570 1570 1571 1571 1571 1571 1571 1571 1571 1570 1569 1569 1569 1569 1568 1568 1567 1566 1566 1565 1564 1564 1563 1562 1561 1560 1559 1558 1556
1538 1542 1546 1550 1554 1557 1559 1560 1562 1564 1566 1567 1569 1569 1570 1570 1570 1571 1571 1571 1570 1570 1570 1569 1569 1568 1568 1567 1566 1566 1565 1565 1564 1563 1562 1561 1560 1559 1558 1557 1556 1555 1553
1536 1541 1545 1549 1553 1556 1558 1560 1562 1564 1565 1567 1568 1569 1570 1570 1570 1570 1570 1569 1569 1569 1568 1567 1567 1566 1565 1564 1563 1562 1562 1562 1561 1560 1559 1558 1557 1556 1554 1553 1552 1550 1549
1536 1540 1544 1549 1552 1555 1558 1560 1562 1564 1565 1567 1568 1569 1569 1569 1569 1569 1568 1568 1567 1567 1566 1565 1564 1563 1562 1561 1560 1559 1558 1558 1557 1556 1555 1553 1552 1551 1549 1548 1547 1546 1544
1534 1539 1543 1547 1551 1554 1557 1560 1562 1564 1565 1566 1566 1567 1567 1567 1566 1566 1565 1565 1565 1564 1563 1562 1561 1560 1559 1558 1556 1555 1555 1554 1553 1551 1550 1548 1547 1546 1544 1543 1542 1540 1539
1532 1537 1543 1547 1551 1554 1557 1559 1561 1563 1563 1564 1565 1565 1565 1564 1564 1563 1563 1562 1562 1561 1560 1559 1558 1557 1556 1555 1553 1552 1551 1550 1548 1547 1545 1544 1543 1541 1540 1538 1538 1536 1533
1530 1536 1541 1546 1550 1553 1556 1558 1560 1561 1562 1562 1562 1562 1562 1562 1561 1561 1560 1560 1559 1559 1558 1557 1556 1555 1553 1552 1550 1548 1547 1545 1544 1542 1541 1539 1538 1537 1535 1534 1532 1531 1530
1529 1536 1541 1545 1549 1553 1555 1557 1558 1559 1560 1560 1560 1560 1560 1559 1559 1559 1558 1558 1557 1556 1555 1553 1552 1551 1550 1548 1546 1544 1542 1540 1538 1537 1535 1533 1532 1531 1530 1528 1527 1527 1526
1528 1536 1541 1545 1549 1552 1554 1556 1556 1557 1558 1558 1558 1558 1558 1558 1557 1557 1556 1555 1553 1552 1550 1549 1548 1546 1545 1544 1542 1540 1537 1535 1533 1531 1529 1528 1527 1525 1524 1523 1521 1520 1520
1529 1536 1541 1545 1548 1550 1553 1554 1554 1555 1555 1556 1556 1556 1556 1555 1554 1553 1552 1550 1549 1547 1546 1544 1543 1541 1540 1538 1536 1534 1531 1529 1527 1525 1523 1521 1520 1519 1518 1517 1516 1515 1513
1531 1537 1541 1544 1546 1548 1550 1551 1552 1553 1553 1553 1553 1552 1551 1551 1550 1549 1547 1545 1544 1542 1540 1538 1536 1534 1534 1532 1530 1528 1525 1522 1520 1518 1516 1514 1513 1512 1511 1512 1511 1510 1508
1532 1537 1540 1543 1544 1546 1547 1549 1549 1550 1550 1549 1549 1548 1548 1547 1545 1544 1542 1540 1538 1535 1533 1532 1530 1527 1526 1525 1523 1521 1518 1515 1514 1512 1510 1508 1507 1507 1508 1508 1506 1504 1503
1532 1536 1539 1541 1543 1544 1545 1546 1547 1547 1546 1546 1545 1544 1543 1541 1540 1537 1536 1533 1531 1528 1525 1523 1521 1519 1518 1516 1515 1514 1510 1509 1507 1506 1504 1503 1502 1502 1502 1501 1499 1497 1497
1532 1536 1538 1540 1541 1542 1543 1543 1543 1542 1542 1541 1540 1539 1537 1535 1533 1530 1529 1526 1523 1520 1518 1515 1512 1511 1509 1506 1506 1504 1503 1502 1501 1498 1497 1496 1496 1495 1494 1494 1493 1491 1490
1532 1535 1537 1539 1540 1540 1540 1540 1539 1539 1537 1536 1535 1533 1531 1529 1526 1523 1521 1519 1517 1513 1511 1508 1505 1503 1501 1499 1497 1496 1494 1494 1493 1491 1489 1488 1487 1487 1486 1485 1483 1483 1483
1532 1534 1536 1538 1539 1538 1538 1537 1535 1534 1532 1530 1529 1526 1524 1522 1520 1517 1514 1511 1509 1506 1503 1501 1498 1495 1493 1492 1490 1489 1486 1485 1484 1481 1479 1477 1477 1478 1478 1477 1476 1475 1475
1532 1533 1535 1536 1536 1535 1534 1532 1530 1529 1527 1525 1523 1520 1518 1515 1513 1511 1508 1505 1503 1500 1497 1495 1492 1490 1487 1486 1485 1483 1480 1477 1475 1475 1472 1469 1468 1468 1467 1467 1467 1466 1466
1531 1532 1533 1533 1532 1530 1529 1527 1525 1524 1522 1520 1517 1515 1513 1510 1508 1505 1502 1500 1497 1495 1493 1491 1488 1485 1481 1479 1478 1476 1473 1471 1469 1466 1462 1459 1458 1457 1457 1458 1457 1457 1457